Date String (YYYY-MM-DD hh:mm:ss) UTC,Instrument flags,Ambient pressure (hPa),Sample flow (lpm),Bypass flow (lpm),Sample temperature (°C),Ambient temperature (°C),ASC tube jacket temperature (°C),LED temperature (°C),Box temperature (°C),Sample RH (%),Span deviation,Mass concentration (μg/m³),Mass concentration (μg/m³),Mass concentration (μg/m³)
DateTimeUTC,F1_M11,P_M11,Q1_M11,Q2_M11,T1_M11,T2_M11,T3_M11,T4_M11,T5_M11,U1_M11,ZSPAN_M11,X0_M11,X2_M11,X1_M11
2022-07-15 13:00:00,,0832.7,5.00,0.00,29.6,27.5,00.0,38.4,31.3,26.9,0000.0,0008.10,0003.73,0003.26
2022-07-15 13:01:00,,0832.8,5.01,0.00,29.6,27.7,00.0,38.4,31.4,27.2,0000.0,0008.22,0003.74,0003.27
2022-07-15 13:02:00,,0832.7,5.00,0.00,29.6,27.9,00.0,38.4,31.4,27.3,0000.0,0008.25,0003.74,0003.27
2022-07-15 13:03:00,,0832.8,5.00,0.00,29.6,28.0,00.0,38.4,31.5,27.1,0000.0,0008.19,0003.72,0003.26
2022-07-15 13:04:00,,0832.8,5.00,0.00,29.6,28.1,00.0,38.4,31.5,27.2,0000.0,0008.29,0003.76,0003.27
2022-07-15 13:05:00,,0832.8,4.99,0.00,29.6,28.3,00.0,38.4,31.5,27.1,0000.0,0008.33,0003.79,0003.27
2022-07-15 13:06:00,,0832.8,5.01,0.00,29.7,28.4,00.0,38.4,31.5,27.3,0000.0,0008.29,0003.78,0003.27
2022-07-15 13:07:00,,0832.8,4.99,0.00,29.7,28.5,00.0,38.5,31.6,27.4,0000.0,0007.35,0003.76,0003.27
2022-07-15 13:08:00,,0832.8,5.00,0.00,29.7,28.5,00.0,38.5,31.6,27.3,0000.0,0007.33,0003.76,0003.26
2022-07-15 13:09:00,,0832.8,5.01,0.00,29.7,28.6,00.0,38.5,31.7,27.3,0000.0,0007.38,0003.75,0003.27
2022-07-15 13:10:00,,0832.8,5.01,0.00,29.8,28.7,00.0,38.5,31.7,27.1,0000.0,0007.68,0003.75,0003.28
2022-07-15 13:11:00,,0832.9,4.99,0.00,29.8,28.8,00.0,38.5,31.7,27.1,0000.0,0007.43,0003.73,0003.28
2022-07-15 13:12:00,,0832.8,5.01,0.00,29.8,28.8,00.0,38.5,31.7,27.0,0000.0,0007.40,0003.77,0003.29
2022-07-15 13:13:00,,0832.9,5.00,0.00,29.9,28.8,00.0,38.6,31.8,27.0,0000.0,0007.81,0003.77,0003.30
2022-07-15 13:14:00,,0832.9,5.00,0.00,29.9,28.3,00.0,38.5,31.7,26.9,0000.0,0007.76,0003.78,0003.31
2022-07-15 13:15:00,,0832.9,4.99,0.00,29.8,27.5,00.0,38.4,31.6,27.1,0000.0,0007.79,0003.80,0003.32
2022-07-15 13:16:00,,0832.8,5.02,0.00,29.8,27.2,00.0,38.4,31.5,27.2,0000.0,0007.80,0003.84,0003.32
2022-07-15 13:17:00,,0832.9,4.99,0.00,29.7,27.3,00.0,38.4,31.4,27.4,0000.0,0007.80,0003.87,0003.33
2022-07-15 13:18:00,,0832.8,4.99,0.00,29.6,27.4,00.0,38.4,31.3,27.8,0000.0,0007.88,0003.90,0003.33
2022-07-15 13:19:00,,0832.9,5.00,0.00,29.6,27.5,00.0,38.4,31.4,27.8,0000.0,0008.12,0003.88,0003.33
2022-07-15 13:20:00,,0832.8,5.00,0.00,29.6,27.7,00.0,38.4,31.4,27.8,0000.0,0008.17,0003.91,0003.34
2022-07-15 13:21:00,,0832.9,4.99,0.00,29.6,27.8,00.0,38.4,31.4,28.0,0000.0,0007.77,0003.92,0003.33
2022-07-15 13:22:00,,0832.8,4.99,0.00,29.6,28.0,00.0,38.4,31.4,27.9,0000.0,0008.00,0003.95,0003.34
2022-07-15 13:23:00,,0832.8,5.01,0.00,29.6,28.1,00.0,38.4,31.4,27.6,0000.0,0008.23,0003.95,0003.33
2022-07-15 13:24:00,,0832.9,5.00,0.00,29.6,28.2,00.0,38.4,31.5,27.9,0000.0,0007.77,0003.96,0003.34
2022-07-15 13:25:00,,0832.9,5.00,0.00,29.6,28.3,00.0,38.4,31.5,27.5,0000.0,0007.86,0003.99,0003.35
2022-07-15 13:26:00,,0832.8,4.99,0.00,29.7,28.4,00.0,38.4,31.6,27.4,0000.0,0007.99,0003.98,0003.34
2022-07-15 13:27:00,,0832.8,5.01,0.00,29.7,28.5,00.0,38.4,31.6,27.3,0000.0,0007.99,0003.96,0003.35
2022-07-15 13:28:00,,0832.8,4.99,0.00,29.7,28.6,00.0,38.4,31.7,27.5,0000.0,0007.96,0003.94,0003.36
2022-07-15 13:29:00,,0832.8,5.01,0.00,29.8,28.7,00.0,38.5,31.7,27.5,0000.0,0007.91,0003.93,0003.37
2022-07-15 13:30:00,,0832.8,4.99,0.00,29.8,28.8,00.0,38.5,31.7,27.2,0000.0,0007.72,0003.96,0003.38
2022-07-15 13:31:00,,0832.8,5.01,0.00,29.8,28.8,00.0,38.5,31.7,27.1,0000.0,0007.82,0003.96,0003.39
2022-07-15 13:32:00,,0832.8,4.99,0.00,29.9,28.9,00.0,38.5,31.8,27.3,0000.0,0008.08,0003.97,0003.41
2022-07-15 13:33:00,,0832.8,5.00,0.00,29.9,28.5,00.0,38.5,31.8,27.1,0000.0,0008.06,0003.93,0003.41
2022-07-15 13:34:00,,0832.9,4.99,0.00,29.8,27.7,00.0,38.4,31.6,27.1,0000.0,0007.87,0003.95,0003.41
2022-07-15 13:35:00,,0832.8,5.01,0.00,29.8,27.4,00.0,38.4,31.6,27.1,0000.0,0007.83,0003.95,0003.41
2022-07-15 13:36:00,,0832.9,4.99,0.00,29.7,27.4,00.0,38.4,31.4,27.3,0000.0,0007.82,0003.94,0003.41
2022-07-15 13:37:00,,0832.8,5.00,0.00,29.7,27.5,00.0,38.4,31.4,27.4,0000.0,0007.64,0003.91,0003.41
2022-07-15 13:38:00,,0832.8,5.00,0.00,29.6,27.6,00.0,38.4,31.4,27.3,0000.0,0007.66,0003.93,0003.40
2022-07-15 13:39:00,,0832.8,5.00,0.00,29.6,27.8,00.0,38.4,31.4,27.5,0000.0,0007.77,0003.94,0003.40
2022-07-15 13:40:00,,0832.8,4.99,0.00,29.6,27.9,00.0,38.4,31.4,27.4,0000.0,0007.89,0003.95,0003.40
2022-07-15 13:41:00,,0832.8,5.01,0.00,29.6,28.1,00.0,38.4,31.5,27.5,0000.0,0008.25,0003.98,0003.41
2022-07-15 13:42:00,,0832.8,5.00,0.00,29.7,28.2,00.0,38.4,31.5,27.5,0000.0,0008.16,0003.98,0003.41
2022-07-15 13:43:00,,0832.8,5.00,0.00,29.7,28.3,00.0,38.4,31.6,27.4,0000.0,0007.95,0003.96,0003.40
2022-07-15 13:44:00,,0832.8,5.00,0.00,29.7,28.4,00.0,38.4,31.6,27.4,0000.0,0007.59,0003.98,0003.39
2022-07-15 13:45:00,,0832.8,5.00,0.00,29.7,28.5,00.0,38.5,31.6,27.6,0000.0,0007.61,0003.96,0003.39
2022-07-15 13:46:00,,0832.8,4.99,0.00,29.8,28.6,00.0,38.5,31.7,27.5,0000.0,0008.23,0003.93,0003.39
2022-07-15 13:47:00,,0832.8,5.01,0.00,29.8,28.7,00.0,38.5,31.7,27.7,0000.0,0008.23,0003.95,0003.40
2022-07-15 13:48:00,,0832.8,5.00,0.00,29.8,28.8,00.0,38.5,31.8,28.0,0000.0,0008.83,0003.99,0003.40
2022-07-15 13:49:00,,0832.8,4.99,0.00,29.8,28.8,00.0,38.5,31.8,27.6,0000.0,0009.18,0003.97,0003.40
2022-07-15 13:50:00,,0832.8,5.01,0.00,29.9,28.9,00.0,38.6,31.8,27.0,0000.0,0009.35,0003.97,0003.40
2022-07-15 13:51:00,,0832.8,5.00,0.00,29.9,28.6,00.0,38.5,31.8,26.9,0000.0,0009.45,0003.99,0003.41
2022-07-15 13:52:00,,0832.8,4.99,0.00,29.9,27.8,00.0,38.5,31.7,27.3,0000.0,0009.09,0003.95,0003.40
2022-07-15 13:53:00,,0832.9,5.00,0.00,29.8,27.4,00.0,38.5,31.6,27.1,0000.0,0009.19,0003.93,0003.41
2022-07-15 13:54:00,,0832.8,4.99,0.00,29.7,27.4,00.0,38.5,31.5,27.1,0000.0,0009.89,0003.98,0003.42
2022-07-15 13:55:00,,0832.8,5.01,0.00,29.7,27.5,00.0,38.4,31.4,27.9,0000.0,0010.29,0004.02,0003.44
2022-07-15 13:56:00,,0832.9,5.00,0.00,29.7,27.6,00.0,38.4,31.4,28.1,0000.0,0010.41,0004.05,0003.45
2022-07-15 13:57:00,,0832.8,5.00,0.00,29.7,27.8,00.0,38.4,31.5,27.4,0000.0,0009.93,0004.10,0003.47
2022-07-15 13:58:00,,0832.8,5.01,0.00,29.7,28.0,00.0,38.5,31.5,27.7,0000.0,0010.48,0004.11,0003.47
2022-07-15 13:59:00,,0832.8,4.99,0.00,29.7,28.1,00.0,38.5,31.5,27.4,0000.0,0010.56,0004.10,0003.48
